Regional Weather Roundup
Issued by NWS

Home | Current Version | Previous Version | Graphics & Text | Print | Product List | Glossary On
Versions: 1 2 3 4 5 6 7 8 9 10 11 12 13 14 15 16 17 18 19 20 21 22 23 24 25 26 27 28 29 30 31 32 33 34 35 36 37 38 39 40 41 42 43 44 45 46 47 48 49 50
000
ASUS44 KMEG 292000
RWRTN
TENNESSEE HOURLY STATE WEATHER ROUNDUP
NATIONAL WEATHER SERVICE MEMPHIS TN
200 PM CST THU JAN 29 2015

TNZ002-004-019-021-049-052-054-088>092-292100-
WEST TENNESSEE

CITY           SKY/WX    TMP DP  RH WIND       PRES   REMARKS
MEMPHIS INTL   CLOUDY    63  41  44 NW16G22   30.12R
NWS MEMPHIS      N/A     64 N/A N/A MISG        N/A
JACKSON        PTSUNNY   60  41  49 NW18      30.09R
DYERSBURG      CLOUDY    52  30  43 N20G25    30.16R
UNION CITY     CLOUDY    45  36  70 N18       30.14R
PARIS          CLOUDY    46  36  66 NW16      30.12R
LEXINGTON      MOSUNNY   63  41  45 W16       30.04R
SAVANNAH       MOSUNNY   64  45  48 W10       30.06S
$$

TNZ008-025-027-028-033-062-065-066-292100-
NORTH MIDDLE TENNESSEE

CITY           SKY/WX    TMP DP  RH WIND       PRES   REMARKS
NASHVILLE      PTSUNNY   65  41  41 W10G21    30.00F
CLARKSVILLE    MOSUNNY   53  39  59 NW25G33   30.06R
COOKEVILLE     SUNNY     63  41  45 SW16      29.99F
CROSSVILLE     SUNNY     58  36  43 SW14G23   30.00F
$$

TNZ061-075-076-078-094-096-097-292100-
SOUTH MIDDLE TENNESSEE

CITY           SKY/WX    TMP DP  RH WIND       PRES   REMARKS
FAYETTEVILLE   MOSUNNY   57  43  58 MISG      30.04S
TULLAHOMA      SUNNY     61  39  44 SW16      30.04S
WINCHESTER     SUNNY     61  43  51 W12       30.04F
COLUMBIA       SUNNY     64  45  48 W12       30.01S
SHELBYVILLE    SUNNY     63  43  48 SW13      30.03F
$$

TNZ017-018-042-046-047-292100-
NORTHEAST TENNESSEE

CITY           SKY/WX    TMP DP  RH WIND       PRES   REMARKS
TRI CITIES     SUNNY     47  31  53 NW5       30.00F
ELIZABETHTON   CLEAR     54  28  37 CALM      29.97F
$$

TNZ012-013-036-069-073-074-292100-
CENTRAL EAST TENNESSEE

CITY           SKY/WX    TMP DP  RH WIND       PRES   REMARKS
KNOXVILLE      MOSUNNY   56  34  43 SW20G33   30.01F
OAK RIDGE      SUNNY     57  34  41 SW10G18   30.02F
GATLINBURG     CLEAR     52  34  50 NW3       30.00F
$$

TNZ083-085-099-292100-
SOUTHEAST TENNESSEE

CITY           SKY/WX    TMP DP  RH WIND       PRES   REMARKS
CHATTANOOGA    PTSUNNY   59  34  39 S10G21    30.06F
$$

SKY/WX REPORTED AS FAIR MEANS FEW OR NO CLOUDS BELOW
12 THOUSAND FEET.




USA.gov is the U.S. government's official web portal to all federal, state and local government web resources and services.